Weather History for KIZG - July, 2011

Change the Weather History Date:

Monday, July 25, 2011

  Actual Average Record
Temperature  
Mean Temperature 67 °F -  
Max Temperature 78 °F 78 °F 91 °F (2001)
Min Temperature 57 °F 53 °F 44 °F (2002)
Cooling Degree Days 2    
Growing Degree Days 17 (Base 50)    
Moisture  
Dew Point 54 °F    
Average Humidity 69    
Maximum Humidity 97    
Minimum Humidity 40    
Precipitation  
Precipitation 0.20 in - - ()
Sea Level Pressure  
Sea Level Pressure 29.94 in    
Wind  
Wind Speed 2 mph (South)    
Max Wind Speed 8 mph    
Max Gust Speed -    
Visibility 9 miles    
Events Rain    
Averages and records for this station are not official NWS values.
T = Trace of Precipitation, MM = Missing Value Source: NWS Daily Summary

Daily Weather History Graph

Daily Weather History Graph

Search for Another Location

Airport or City:

Trip Planner

Search our weather history database for the weather conditions in past years. The results will help you decide how hot, cold, wet, or windy it might be!

Date:

Astronomy

Jul. 25, 2011 Rise Set
Actual Time 5:24 AM EDT 8:15 PM EDT
Civil Twilight 4:50 AM EDT 8:49 PM EDT
Nautical Twilight 4:07 AM EDT 9:32 PM EDT
Astronomical Twilight 3:17 AM EDT 10:22 PM EDT
Moon 12:29 AM EDT (7/25) 4:00 PM EDT (7/25)
Length of Visible Light 15h 59m
Length of Day
14h 51m
Waning Crescent, 27% of the Moon is Illuminated
Jul 25
Waning Crescent
Jul 30
New
Aug 6
First Quarter
Aug 13
Full
Aug 21
Last Quarter

Hourly Weather History & Observations

Time (EDT) Temp. Dew Point Humidity Pressure Visibility Wind Dir Wind Speed Gust Speed Precip Events Conditions
12:54 AM 60.1 °F 55.9 °F 86% 30.01 in 10.0 mi Calm Calm - N/A   Mostly Cloudy
1:54 AM 59.0 °F 57.0 °F 93% 30.01 in 10.0 mi Calm Calm - N/A   Overcast
2:54 AM 60.1 °F 57.0 °F 90% 30.01 in 10.0 mi Calm Calm - N/A   Overcast
3:54 AM 57.9 °F 55.9 °F 93% 30.00 in 10.0 mi Calm Calm - N/A   Mostly Cloudy
4:54 AM 57.0 °F 55.0 °F 93% 30.00 in 10.0 mi Calm Calm - N/A   Mostly Cloudy
7:54 AM 64.9 °F 57.0 °F 75% 30.01 in 10.0 mi Calm Calm - N/A   Overcast
8:54 AM 69.1 °F 57.9 °F 68% 30.00 in 10.0 mi Calm Calm - N/A   Overcast
9:54 AM 72.0 °F 57.9 °F 61% 29.99 in 10.0 mi Calm Calm - N/A   Scattered Clouds
10:54 AM 77.0 °F 52.0 °F 42% 29.97 in 10.0 mi Variable 4.6 mph - N/A   Partly Cloudy
11:54 AM 75.0 °F 52.0 °F 44% 29.97 in 10.0 mi Variable 6.9 mph - N/A   Overcast
12:54 PM 75.9 °F 50.0 °F 40% 29.95 in 10.0 mi South 5.8 mph - N/A   Overcast
1:54 PM 75.0 °F 53.1 °F 46% 29.94 in 10.0 mi SSE 4.6 mph - N/A   Overcast
2:54 PM 73.0 °F 52.0 °F 48% 29.92 in 10.0 mi SSE 4.6 mph - N/A   Overcast
3:54 PM 72.0 °F 50.0 °F 46% 29.92 in 10.0 mi SSE 5.8 mph - N/A   Overcast
4:54 PM 70.0 °F 50.0 °F 49% 29.91 in 10.0 mi SSE 4.6 mph - N/A   Overcast
5:54 PM 68.0 °F 50.0 °F 52% 29.92 in 10.0 mi SSE 5.8 mph - N/A   Overcast
6:54 PM 66.9 °F 52.0 °F 59% 29.90 in 10.0 mi SSE 5.8 mph - N/A   Overcast
7:54 PM 66.0 °F 53.1 °F 63% 29.89 in 10.0 mi South 8.1 mph - N/A   Overcast
8:54 PM 64.9 °F 51.1 °F 61% 29.88 in 10.0 mi Calm Calm - N/A   Overcast
9:54 PM 59.0 °F 55.9 °F 90% 29.88 in 7.0 mi WSW 3.5 mph - 0.03 in Rain Light Rain
10:54 PM 57.9 °F 57.0 °F 97% 29.85 in 4.0 mi Calm Calm - 0.06 in Rain Rain
11:01 PM 57.2 °F 55.4 °F 94% 29.85 in 5.0 mi Calm Calm - 0.01 in Rain Light Rain
11:54 PM 57.0 °F 55.9 °F 96% 29.85 in 4.0 mi Calm Calm - 0.11 in Rain Rain